Year,Month,Day,Hour,Minute,Value (Times are PST for temperature in C)
2008,11,17,00,00,9.40
2008,11,17,00,01,9.40
2008,11,17,00,02,9.40
2008,11,17,00,03,9.30
2008,11,17,00,04,9.30
2008,11,17,00,05,9.30
2008,11,17,00,06,9.30
2008,11,17,00,07,9.30
2008,11,17,00,08,9.30
2008,11,17,00,09,9.30
2008,11,17,00,10,9.30
2008,11,17,00,11,9.30
2008,11,17,00,12,9.30
2008,11,17,00,13,9.30
2008,11,17,00,14,9.30
2008,11,17,00,15,9.30
2008,11,17,00,16,9.30
2008,11,17,00,17,9.30
2008,11,17,00,18,9.30
2008,11,17,00,19,9.30
2008,11,17,00,20,9.30
2008,11,17,00,21,9.30
2008,11,17,00,22,9.20
2008,11,17,00,23,9.20
2008,11,17,00,24,9.20
2008,11,17,00,25,9.20
2008,11,17,00,26,9.20
2008,11,17,00,27,9.20
2008,11,17,00,28,9.20
2008,11,17,00,29,9.20
2008,11,17,00,30,9.20
2008,11,17,00,31,9.20
2008,11,17,00,32,9.20
2008,11,17,00,33,9.20
2008,11,17,00,34,9.10
2008,11,17,00,35,9.10
2008,11,17,00,36,9.10
2008,11,17,00,37,9.10
2008,11,17,00,38,9.10
2008,11,17,00,39,9.10
2008,11,17,00,40,9.10
2008,11,17,00,41,9.10
2008,11,17,00,42,9.10
2008,11,17,00,43,9.10
2008,11,17,00,44,9.10
2008,11,17,00,45,9.00
2008,11,17,00,46,9.00
2008,11,17,00,47,9.00
2008,11,17,00,48,8.90
2008,11,17,00,49,8.90
2008,11,17,00,50,8.90
2008,11,17,00,51,8.90
2008,11,17,00,52,8.90
2008,11,17,00,53,8.90
2008,11,17,00,54,8.90
2008,11,17,00,55,8.80
2008,11,17,00,56,8.80
2008,11,17,00,57,8.80
2008,11,17,00,58,8.80
2008,11,17,00,59,8.80
2008,11,17,01,00,8.80
2008,11,17,01,01,8.80
2008,11,17,01,02,8.80
2008,11,17,01,03,8.80
2008,11,17,01,04,8.70
2008,11,17,01,05,8.70
2008,11,17,01,06,8.70
2008,11,17,01,07,8.70
2008,11,17,01,08,8.70
2008,11,17,01,09,8.70
2008,11,17,01,10,8.70
2008,11,17,01,11,8.70
2008,11,17,01,12,8.70
2008,11,17,01,13,8.70
2008,11,17,01,14,8.70
2008,11,17,01,15,8.60
2008,11,17,01,16,8.60
2008,11,17,01,17,8.60
2008,11,17,01,18,8.60
2008,11,17,01,19,8.60
2008,11,17,01,20,8.60
2008,11,17,01,21,8.60
2008,11,17,01,22,8.60
2008,11,17,01,23,8.60
2008,11,17,01,24,8.60
2008,11,17,01,25,8.60
2008,11,17,01,26,8.60
2008,11,17,01,27,8.60
2008,11,17,01,28,8.60
2008,11,17,01,29,8.60
2008,11,17,01,30,8.60
2008,11,17,01,31,8.60
2008,11,17,01,32,8.60
2008,11,17,01,33,8.60
2008,11,17,01,34,8.60
2008,11,17,01,35,8.60
2008,11,17,01,36,8.60
2008,11,17,01,37,8.60
2008,11,17,01,38,8.60
2008,11,17,01,39,8.50
2008,11,17,01,40,8.50
2008,11,17,01,41,8.50
2008,11,17,01,42,8.50
2008,11,17,01,43,8.50
2008,11,17,01,44,8.50
2008,11,17,01,45,8.50
2008,11,17,01,46,8.50
2008,11,17,01,47,8.50
2008,11,17,01,48,8.50
2008,11,17,01,49,8.50
2008,11,17,01,50,8.50
2008,11,17,01,51,8.50
2008,11,17,01,52,8.40
2008,11,17,01,53,8.40
2008,11,17,01,54,8.40
2008,11,17,01,55,8.40
2008,11,17,01,56,8.40
2008,11,17,01,57,8.40
2008,11,17,01,58,8.40
2008,11,17,01,59,8.40
2008,11,17,02,00,8.40
2008,11,17,02,01,8.40
2008,11,17,02,02,8.40
2008,11,17,02,03,8.40
2008,11,17,02,04,8.40
2008,11,17,02,05,8.40
2008,11,17,02,06,8.40
2008,11,17,02,07,8.40
2008,11,17,02,08,8.40
2008,11,17,02,09,8.40
2008,11,17,02,10,8.40
2008,11,17,02,11,8.40
2008,11,17,02,12,8.40
2008,11,17,02,13,8.30
2008,11,17,02,14,8.40
2008,11,17,02,15,8.40
2008,11,17,02,16,8.40
2008,11,17,02,17,8.30
2008,11,17,02,18,8.40
2008,11,17,02,19,8.40
2008,11,17,02,20,8.40
2008,11,17,02,21,8.40
2008,11,17,02,22,8.40
2008,11,17,02,23,8.40
2008,11,17,02,24,8.40
2008,11,17,02,25,8.40
2008,11,17,02,26,8.40
2008,11,17,02,27,8.40
2008,11,17,02,28,8.40
2008,11,17,02,29,8.40
2008,11,17,02,30,8.40
2008,11,17,02,31,8.40
2008,11,17,02,32,8.30
2008,11,17,02,33,8.30
2008,11,17,02,34,8.30
2008,11,17,02,35,8.30
2008,11,17,02,36,8.30
2008,11,17,02,37,8.30
2008,11,17,02,38,8.30
2008,11,17,02,39,8.30
2008,11,17,02,40,8.30
2008,11,17,02,41,8.30
2008,11,17,02,42,8.30
2008,11,17,02,43,8.30
2008,11,17,02,44,8.30
2008,11,17,02,45,8.30
2008,11,17,02,46,8.30
2008,11,17,02,47,8.30
2008,11,17,02,48,8.30
2008,11,17,02,49,8.30
2008,11,17,02,50,8.20
2008,11,17,02,51,8.20
2008,11,17,02,52,8.20
2008,11,17,02,53,8.20
2008,11,17,02,54,8.10
2008,11,17,02,55,8.10
2008,11,17,02,56,8.10
2008,11,17,02,57,8.10
2008,11,17,02,58,8.10
2008,11,17,02,59,8.00
2008,11,17,03,00,8.00
2008,11,17,03,01,8.00
2008,11,17,03,02,8.00
2008,11,17,03,03,8.00
2008,11,17,03,04,7.90
2008,11,17,03,05,7.90
2008,11,17,03,06,7.90
2008,11,17,03,07,8.00
2008,11,17,03,08,7.90
2008,11,17,03,09,7.90
2008,11,17,03,10,8.00
2008,11,17,03,11,8.00
2008,11,17,03,12,8.00
2008,11,17,03,13,8.00
2008,11,17,03,14,8.00
2008,11,17,03,15,7.90
2008,11,17,03,16,7.90
2008,11,17,03,17,7.90
2008,11,17,03,18,7.90
2008,11,17,03,19,7.90
2008,11,17,03,20,7.90
2008,11,17,03,21,7.90
2008,11,17,03,22,7.80
2008,11,17,03,23,7.80
2008,11,17,03,24,7.80
2008,11,17,03,25,7.80
2008,11,17,03,26,7.80
2008,11,17,03,27,7.80
2008,11,17,03,28,7.80
2008,11,17,03,29,7.70
2008,11,17,03,30,7.70
2008,11,17,03,31,7.70
2008,11,17,03,32,7.70
2008,11,17,03,33,7.70
2008,11,17,03,34,7.70
2008,11,17,03,35,7.60
2008,11,17,03,36,7.60
2008,11,17,03,37,7.60
2008,11,17,03,38,7.60
2008,11,17,03,39,7.60
2008,11,17,03,40,7.50
2008,11,17,03,41,7.50
2008,11,17,03,42,7.50
2008,11,17,03,43,7.40
2008,11,17,03,44,7.40
2008,11,17,03,45,7.40
2008,11,17,03,46,7.40
2008,11,17,03,47,7.40
2008,11,17,03,48,7.40
2008,11,17,03,49,7.30
2008,11,17,03,50,7.30
2008,11,17,03,51,7.30
2008,11,17,03,52,7.30
2008,11,17,03,53,7.30
2008,11,17,03,54,7.30
2008,11,17,03,55,7.20
2008,11,17,03,56,7.20
2008,11,17,03,57,7.20
2008,11,17,03,58,7.20
2008,11,17,03,59,7.20
2008,11,17,04,00,7.20
2008,11,17,04,01,7.20
2008,11,17,04,02,7.10
2008,11,17,04,03,7.10
2008,11,17,04,04,7.10
2008,11,17,04,05,7.00
2008,11,17,04,06,7.00
2008,11,17,04,07,7.00
2008,11,17,04,08,6.90
2008,11,17,04,09,6.90
2008,11,17,04,10,6.90
2008,11,17,04,11,6.90
2008,11,17,04,12,6.80
2008,11,17,04,13,6.80
2008,11,17,04,14,6.80
2008,11,17,04,15,6.80
2008,11,17,04,16,6.80
2008,11,17,04,17,6.70
2008,11,17,04,18,6.70
2008,11,17,04,19,6.70
2008,11,17,04,20,6.70
2008,11,17,04,21,6.70
2008,11,17,04,22,6.70
2008,11,17,04,23,6.60
2008,11,17,04,24,6.60
2008,11,17,04,25,6.60
2008,11,17,04,26,6.60
2008,11,17,04,27,6.60
2008,11,17,04,28,6.60
2008,11,17,04,29,6.60
2008,11,17,04,30,6.60
2008,11,17,04,31,6.50
2008,11,17,04,32,6.50
2008,11,17,04,33,6.50
2008,11,17,04,34,6.50
2008,11,17,04,35,6.50
2008,11,17,04,36,6.50
2008,11,17,04,37,6.40
2008,11,17,04,38,6.50
2008,11,17,04,39,6.40
2008,11,17,04,40,6.40
2008,11,17,04,41,6.40
2008,11,17,04,42,6.40
2008,11,17,04,43,6.40
2008,11,17,04,44,6.40
2008,11,17,04,45,6.40
2008,11,17,04,46,6.40
2008,11,17,04,47,6.40
2008,11,17,04,48,6.40
2008,11,17,04,49,6.30
2008,11,17,04,50,6.30
2008,11,17,04,51,6.30
2008,11,17,04,52,6.30
2008,11,17,04,53,6.30
2008,11,17,04,54,6.30
2008,11,17,04,55,6.30
2008,11,17,04,56,6.30
2008,11,17,04,57,6.30
2008,11,17,04,58,6.30
2008,11,17,04,59,6.20
2008,11,17,05,00,6.20
2008,11,17,05,01,6.20
2008,11,17,05,02,6.20
2008,11,17,05,03,6.20
2008,11,17,05,04,6.20
2008,11,17,05,05,6.20
2008,11,17,05,06,6.20
2008,11,17,05,07,6.20
2008,11,17,05,08,6.20
2008,11,17,05,09,6.10
2008,11,17,05,10,6.10
2008,11,17,05,11,6.10
2008,11,17,05,12,6.10
2008,11,17,05,13,6.10
2008,11,17,05,14,6.10
2008,11,17,05,15,6.10
2008,11,17,05,16,6.00
2008,11,17,05,17,6.00
2008,11,17,05,18,6.00
2008,11,17,05,19,6.00
2008,11,17,05,20,6.00
2008,11,17,05,21,6.00
2008,11,17,05,22,5.90
2008,11,17,05,23,5.90
2008,11,17,05,24,5.90
2008,11,17,05,25,5.90
2008,11,17,05,26,5.90
2008,11,17,05,27,5.90
2008,11,17,05,28,5.90
2008,11,17,05,29,5.90
2008,11,17,05,30,5.90
2008,11,17,05,31,5.80
2008,11,17,05,32,5.80
2008,11,17,05,33,5.80
2008,11,17,05,34,5.80
2008,11,17,05,35,5.80
2008,11,17,05,36,5.80
2008,11,17,05,37,5.80
2008,11,17,05,38,5.80
2008,11,17,05,39,5.80
2008,11,17,05,40,5.80
2008,11,17,05,41,5.80
2008,11,17,05,42,5.80
2008,11,17,05,43,5.80
2008,11,17,05,44,5.70
2008,11,17,05,45,5.70
2008,11,17,05,46,5.70
2008,11,17,05,47,5.70
2008,11,17,05,48,5.70
2008,11,17,05,49,5.70
2008,11,17,05,50,5.70
2008,11,17,05,51,5.70
2008,11,17,05,52,5.70
2008,11,17,05,53,5.70
2008,11,17,05,54,5.70
2008,11,17,05,55,5.70
2008,11,17,05,56,5.70
2008,11,17,05,57,5.70
2008,11,17,05,58,5.70
2008,11,17,05,59,5.70
2008,11,17,06,00,5.70
2008,11,17,06,01,5.70
2008,11,17,06,02,5.70
2008,11,17,06,03,5.70
2008,11,17,06,04,5.60
2008,11,17,06,05,5.60
2008,11,17,06,06,5.60
2008,11,17,06,07,5.60
2008,11,17,06,08,5.60
2008,11,17,06,09,5.60
2008,11,17,06,10,5.60
2008,11,17,06,11,5.60
2008,11,17,06,12,5.60
2008,11,17,06,13,5.60
2008,11,17,06,14,5.60
2008,11,17,06,15,5.50
2008,11,17,06,16,5.50
2008,11,17,06,17,5.50
2008,11,17,06,18,5.50
2008,11,17,06,19,5.50
2008,11,17,06,20,5.50
2008,11,17,06,21,5.50
2008,11,17,06,22,5.50
2008,11,17,06,23,5.50
2008,11,17,06,24,5.40
2008,11,17,06,25,5.40
2008,11,17,06,26,5.40
2008,11,17,06,27,5.40
2008,11,17,06,28,5.40
2008,11,17,06,29,5.40
2008,11,17,06,30,5.40
2008,11,17,06,31,5.40
2008,11,17,06,32,5.40
2008,11,17,06,33,5.40
2008,11,17,06,34,5.40
2008,11,17,06,35,5.40
2008,11,17,06,36,5.40
2008,11,17,06,37,5.40
2008,11,17,06,38,5.40
2008,11,17,06,39,5.40
2008,11,17,06,40,5.40
2008,11,17,06,41,5.40
2008,11,17,06,42,5.40
2008,11,17,06,43,5.40
2008,11,17,06,44,5.40
2008,11,17,06,45,5.40
2008,11,17,06,46,5.40
2008,11,17,06,47,5.40
2008,11,17,06,48,5.30
2008,11,17,06,49,5.30
2008,11,17,06,50,5.30
2008,11,17,06,51,5.30
2008,11,17,06,52,5.30
2008,11,17,06,53,5.30
2008,11,17,06,54,5.30
2008,11,17,06,55,5.30
2008,11,17,06,56,5.30
2008,11,17,06,57,5.30
2008,11,17,06,58,5.30
2008,11,17,06,59,5.30
2008,11,17,07,00,5.30
2008,11,17,07,01,5.30
2008,11,17,07,02,5.30
2008,11,17,07,03,5.20
2008,11,17,07,04,5.20
2008,11,17,07,05,5.20
2008,11,17,07,06,5.20
2008,11,17,07,07,5.20
2008,11,17,07,08,5.20
2008,11,17,07,09,5.20
2008,11,17,07,10,5.20
2008,11,17,07,11,5.20
2008,11,17,07,12,5.20
2008,11,17,07,13,5.20
2008,11,17,07,14,5.20
2008,11,17,07,15,5.20
2008,11,17,07,16,5.20
2008,11,17,07,17,5.20
2008,11,17,07,18,5.20
2008,11,17,07,19,5.20
2008,11,17,07,20,5.20
2008,11,17,07,21,5.20
2008,11,17,07,22,5.20
2008,11,17,07,23,5.20
2008,11,17,07,24,5.20
2008,11,17,07,25,5.20
2008,11,17,07,26,5.20
2008,11,17,07,27,5.20
2008,11,17,07,28,5.20
2008,11,17,07,29,5.20
2008,11,17,07,30,5.20
2008,11,17,07,31,5.20
2008,11,17,07,32,5.20
2008,11,17,07,33,5.20
2008,11,17,07,34,5.20
2008,11,17,07,35,5.20
2008,11,17,07,36,5.30
2008,11,17,07,37,5.30
2008,11,17,07,38,5.20
2008,11,17,07,39,5.20
2008,11,17,07,40,5.20
2008,11,17,07,41,5.20
2008,11,17,07,42,5.20
2008,11,17,07,43,5.20
2008,11,17,07,44,5.20
2008,11,17,07,45,5.20
2008,11,17,07,46,5.20
2008,11,17,07,47,5.20
2008,11,17,07,48,5.20
2008,11,17,07,49,5.20
2008,11,17,07,50,5.20
2008,11,17,07,51,5.20
2008,11,17,07,52,5.20
2008,11,17,07,53,5.20
2008,11,17,07,54,5.20
2008,11,17,07,55,5.20
2008,11,17,07,56,5.20
2008,11,17,07,57,5.20
2008,11,17,07,58,5.20
2008,11,17,07,59,5.20
2008,11,17,08,00,5.20
2008,11,17,08,01,5.20
2008,11,17,08,02,5.20
2008,11,17,08,03,5.20
2008,11,17,08,04,5.30
2008,11,17,08,05,5.30
2008,11,17,08,06,5.30
2008,11,17,08,07,5.30
2008,11,17,08,08,5.30
2008,11,17,08,09,5.30
2008,11,17,08,10,5.30
2008,11,17,08,11,5.30
2008,11,17,08,12,5.30
2008,11,17,08,13,5.40
2008,11,17,08,14,5.40
2008,11,17,08,15,5.40
2008,11,17,08,16,5.40
2008,11,17,08,17,5.40
2008,11,17,08,18,5.40
2008,11,17,08,19,5.40
2008,11,17,08,20,5.40
2008,11,17,08,21,5.40
2008,11,17,08,22,5.40
2008,11,17,08,23,5.40
2008,11,17,08,24,5.40
2008,11,17,08,25,5.40
2008,11,17,08,26,5.40
2008,11,17,08,27,5.40
2008,11,17,08,28,5.40
2008,11,17,08,29,5.40
2008,11,17,08,30,5.40
2008,11,17,08,31,5.50
2008,11,17,08,32,5.50
2008,11,17,08,33,5.50
2008,11,17,08,34,5.50
2008,11,17,08,35,5.50
2008,11,17,08,36,5.50
2008,11,17,08,37,5.50
2008,11,17,08,38,5.50
2008,11,17,08,39,5.50
2008,11,17,08,40,5.50
2008,11,17,08,41,5.60
2008,11,17,08,42,5.60
2008,11,17,08,43,5.60
2008,11,17,08,44,5.60
2008,11,17,08,45,5.60
2008,11,17,08,46,5.60
2008,11,17,08,47,5.60
2008,11,17,08,48,5.60
2008,11,17,08,49,5.60
2008,11,17,08,50,5.60
2008,11,17,08,51,5.60
2008,11,17,08,52,5.60
2008,11,17,08,53,5.60
2008,11,17,08,54,5.70
2008,11,17,08,55,5.70
2008,11,17,08,56,5.80
2008,11,17,08,57,5.90
2008,11,17,08,58,5.90
2008,11,17,08,59,5.90
2008,11,17,09,00,6.00
2008,11,17,09,01,6.10
2008,11,17,09,02,6.10
2008,11,17,09,03,6.20
2008,11,17,09,04,6.20
2008,11,17,09,05,6.20
2008,11,17,09,06,6.30
2008,11,17,09,07,6.30
2008,11,17,09,08,6.40
2008,11,17,09,09,6.40
2008,11,17,09,10,6.40
2008,11,17,09,11,6.50
2008,11,17,09,12,6.50
2008,11,17,09,13,6.60
2008,11,17,09,14,6.60
2008,11,17,09,15,6.60
2008,11,17,09,16,6.60
2008,11,17,09,17,6.70
2008,11,17,09,18,6.70
2008,11,17,09,19,6.70
2008,11,17,09,20,6.70
2008,11,17,09,21,6.70
2008,11,17,09,22,6.80
2008,11,17,09,23,6.80
2008,11,17,09,24,6.80
2008,11,17,09,25,6.90
2008,11,17,09,26,6.90
2008,11,17,09,27,7.00
2008,11,17,09,28,7.10
2008,11,17,09,29,7.20
2008,11,17,09,30,7.20
2008,11,17,09,31,7.30
2008,11,17,09,32,7.30
2008,11,17,09,33,7.30
2008,11,17,09,34,7.30
2008,11,17,09,35,7.40
2008,11,17,09,36,7.40
2008,11,17,09,37,7.40
2008,11,17,09,38,7.50
2008,11,17,09,39,7.50
2008,11,17,09,40,7.60
2008,11,17,09,41,7.60
2008,11,17,09,42,7.60
2008,11,17,09,43,7.60
2008,11,17,09,44,7.60
2008,11,17,09,45,7.60
2008,11,17,09,46,7.70
2008,11,17,09,47,7.70
2008,11,17,09,48,7.70
2008,11,17,09,49,7.70
2008,11,17,09,50,7.70
2008,11,17,09,51,7.70
2008,11,17,09,52,7.70
2008,11,17,09,53,7.70
2008,11,17,09,54,7.70
2008,11,17,09,55,7.70
2008,11,17,09,56,7.70
2008,11,17,09,57,7.70
2008,11,17,09,58,7.80
2008,11,17,09,59,7.80
2008,11,17,10,00,7.80
2008,11,17,10,01,7.80
2008,11,17,10,02,8.00
2008,11,17,10,03,8.10
2008,11,17,10,04,8.30
2008,11,17,10,05,8.40
2008,11,17,10,06,8.50
2008,11,17,10,07,8.60
2008,11,17,10,08,8.70
2008,11,17,10,09,8.70
2008,11,17,10,10,8.80
2008,11,17,10,11,8.80
2008,11,17,10,12,8.80
2008,11,17,10,13,8.80
2008,11,17,10,14,8.80
2008,11,17,10,15,8.80
2008,11,17,10,16,8.80
2008,11,17,10,17,8.80
2008,11,17,10,18,8.90
2008,11,17,10,19,8.90
2008,11,17,10,20,8.90
2008,11,17,10,21,8.90
2008,11,17,10,22,9.00
2008,11,17,10,23,9.00
2008,11,17,10,24,9.00
2008,11,17,10,25,9.00
2008,11,17,10,26,9.00
2008,11,17,10,27,9.00
2008,11,17,10,28,9.00
2008,11,17,10,29,9.00
2008,11,17,10,30,9.00
2008,11,17,10,31,9.00
2008,11,17,10,32,9.00
2008,11,17,10,33,9.00
2008,11,17,10,34,9.00
2008,11,17,10,35,9.10
2008,11,17,10,36,9.10
2008,11,17,10,37,9.10
2008,11,17,10,38,9.10
2008,11,17,10,39,9.10
2008,11,17,10,40,9.20
2008,11,17,10,41,9.20
2008,11,17,10,42,9.10
2008,11,17,10,43,9.10
2008,11,17,10,44,9.10
2008,11,17,10,45,9.00
2008,11,17,10,46,9.00
2008,11,17,10,47,8.90
2008,11,17,10,48,8.90
2008,11,17,10,49,8.90
2008,11,17,10,50,8.90
2008,11,17,10,51,8.90
2008,11,17,10,52,8.90
2008,11,17,10,53,9.00
2008,11,17,10,54,9.10
2008,11,17,10,55,9.10
2008,11,17,10,56,9.20
2008,11,17,10,57,9.20
2008,11,17,10,58,9.20
2008,11,17,10,59,9.20
2008,11,17,11,00,9.20
2008,11,17,11,01,9.30
2008,11,17,11,02,9.30
2008,11,17,11,03,9.40
2008,11,17,11,04,9.40
2008,11,17,11,05,9.40
2008,11,17,11,06,9.50
2008,11,17,11,07,9.60
2008,11,17,11,08,9.70
2008,11,17,11,09,9.70
2008,11,17,11,10,9.80
2008,11,17,11,11,9.80
2008,11,17,11,12,9.90
2008,11,17,11,13,9.90
2008,11,17,11,14,9.90
2008,11,17,11,15,9.90
2008,11,17,11,16,9.90
2008,11,17,11,17,10.00
2008,11,17,11,18,10.00
2008,11,17,11,19,10.10
2008,11,17,11,20,10.10
2008,11,17,11,21,10.20
2008,11,17,11,22,10.20
2008,11,17,11,23,10.20
2008,11,17,11,24,10.30
2008,11,17,11,25,10.30
2008,11,17,11,26,10.30
2008,11,17,11,27,10.30
2008,11,17,11,28,10.30
2008,11,17,11,29,10.40
2008,11,17,11,30,10.40
2008,11,17,11,31,10.40
2008,11,17,11,32,10.50
2008,11,17,11,33,10.60
2008,11,17,11,34,10.60
2008,11,17,11,35,10.60
2008,11,17,11,36,10.70
2008,11,17,11,37,10.70
2008,11,17,11,38,10.70
2008,11,17,11,39,10.70
2008,11,17,11,40,10.70
2008,11,17,11,41,10.80
2008,11,17,11,42,10.80
2008,11,17,11,43,10.80
2008,11,17,11,44,10.90
2008,11,17,11,45,10.90
2008,11,17,11,46,11.00
2008,11,17,11,47,11.10
2008,11,17,11,48,11.10
2008,11,17,11,49,11.10
2008,11,17,11,50,11.10
2008,11,17,11,51,11.10
2008,11,17,11,52,11.10
2008,11,17,11,53,11.10
2008,11,17,11,54,11.10
2008,11,17,11,55,11.10
2008,11,17,11,56,11.10
2008,11,17,11,57,11.10
2008,11,17,11,58,11.20
2008,11,17,11,59,11.20
2008,11,17,12,00,11.20
2008,11,17,12,01,11.30
2008,11,17,12,02,11.30
2008,11,17,12,03,11.30
2008,11,17,12,04,11.40
2008,11,17,12,05,11.50
2008,11,17,12,06,11.60
2008,11,17,12,07,11.70
2008,11,17,12,08,11.70
2008,11,17,12,09,11.70
2008,11,17,12,10,11.70
2008,11,17,12,11,11.80
2008,11,17,12,12,11.80
2008,11,17,12,13,11.90
2008,11,17,12,14,11.90
2008,11,17,12,15,12.00
2008,11,17,12,16,12.00
2008,11,17,12,17,12.10
2008,11,17,12,18,12.20
2008,11,17,12,19,12.20
2008,11,17,12,20,12.30
2008,11,17,12,21,12.30
2008,11,17,12,22,12.30
2008,11,17,12,23,12.30
2008,11,17,12,24,12.30
2008,11,17,12,25,12.40
2008,11,17,12,26,12.50
2008,11,17,12,27,12.50
2008,11,17,12,28,12.60
2008,11,17,12,29,12.60
2008,11,17,12,30,12.60
2008,11,17,12,31,12.60
2008,11,17,12,32,12.60
2008,11,17,12,33,12.60
2008,11,17,12,34,12.70
2008,11,17,12,35,12.70
2008,11,17,12,36,12.70
2008,11,17,12,37,12.70
2008,11,17,12,38,12.70
2008,11,17,12,39,12.70
2008,11,17,12,40,12.60
2008,11,17,12,41,12.50
2008,11,17,12,42,12.50
2008,11,17,12,43,12.40
2008,11,17,12,44,12.40
2008,11,17,12,45,12.40
2008,11,17,12,46,12.40
2008,11,17,12,47,12.30
2008,11,17,12,48,12.40
2008,11,17,12,49,12.30
2008,11,17,12,50,12.30
2008,11,17,12,51,12.40
2008,11,17,12,52,12.40
2008,11,17,12,53,12.50
2008,11,17,12,54,12.50
2008,11,17,12,55,12.60
2008,11,17,12,56,12.70
2008,11,17,12,57,12.70
2008,11,17,12,58,12.80
2008,11,17,12,59,12.70
2008,11,17,13,00,12.80
2008,11,17,13,01,12.80
2008,11,17,13,02,12.80
2008,11,17,13,03,12.80
2008,11,17,13,04,12.80
2008,11,17,13,05,12.80
2008,11,17,13,06,12.80
2008,11,17,13,07,12.80
2008,11,17,13,08,12.80
2008,11,17,13,09,12.80
2008,11,17,13,10,12.80
2008,11,17,13,11,12.80
2008,11,17,13,12,12.80
2008,11,17,13,13,12.80
2008,11,17,13,14,12.80
2008,11,17,13,15,12.80
2008,11,17,13,16,12.80
2008,11,17,13,17,12.80
2008,11,17,13,18,12.80
2008,11,17,13,19,12.70
2008,11,17,13,20,12.70
2008,11,17,13,21,12.70
2008,11,17,13,22,12.70
2008,11,17,13,23,12.80
2008,11,17,13,24,12.80
2008,11,17,13,25,12.80
2008,11,17,13,26,12.70
2008,11,17,13,27,12.70
2008,11,17,13,28,12.70
2008,11,17,13,29,12.70
2008,11,17,13,30,12.70
2008,11,17,13,31,12.80
2008,11,17,13,32,12.70
2008,11,17,13,33,12.70
2008,11,17,13,34,12.70
2008,11,17,13,35,12.70
2008,11,17,13,36,12.70
2008,11,17,13,37,12.70
2008,11,17,13,38,12.80
2008,11,17,13,39,12.80
2008,11,17,13,40,12.90
2008,11,17,13,41,12.90
2008,11,17,13,42,12.80
2008,11,17,13,43,12.80
2008,11,17,13,44,12.80
2008,11,17,13,45,12.80
2008,11,17,13,46,12.80
2008,11,17,13,47,12.80
2008,11,17,13,48,12.80
2008,11,17,13,49,12.80
2008,11,17,13,50,12.80
2008,11,17,13,51,12.80
2008,11,17,13,52,12.80
2008,11,17,13,53,12.80
2008,11,17,13,54,12.80
2008,11,17,13,55,12.80
2008,11,17,13,56,12.80
2008,11,17,13,57,12.70
2008,11,17,13,58,12.70
2008,11,17,13,59,12.60
2008,11,17,14,00,12.60
2008,11,17,14,01,12.60
2008,11,17,14,02,12.60
2008,11,17,14,03,12.60
2008,11,17,14,04,12.60
2008,11,17,14,05,12.60
2008,11,17,14,06,12.50
2008,11,17,14,07,12.50
2008,11,17,14,08,12.40
2008,11,17,14,09,12.40
2008,11,17,14,10,12.40
2008,11,17,14,11,12.40
2008,11,17,14,12,12.40
2008,11,17,14,13,12.30
2008,11,17,14,14,12.30
2008,11,17,14,15,12.30
2008,11,17,14,16,12.30
2008,11,17,14,17,12.30
2008,11,17,14,18,12.20
2008,11,17,14,19,12.20
2008,11,17,14,20,12.20
2008,11,17,14,21,12.20
2008,11,17,14,22,12.20
2008,11,17,14,23,12.20
2008,11,17,14,24,12.20
2008,11,17,14,25,12.20
2008,11,17,14,26,12.20
2008,11,17,14,27,12.20
2008,11,17,14,28,12.20
2008,11,17,14,29,12.20
2008,11,17,14,30,12.20
2008,11,17,14,31,12.20
2008,11,17,14,32,12.20
2008,11,17,14,33,12.10
2008,11,17,14,34,12.10
2008,11,17,14,35,12.10
2008,11,17,14,36,12.00
2008,11,17,14,37,12.00
2008,11,17,14,38,11.90
2008,11,17,14,39,11.90
2008,11,17,14,40,11.90
2008,11,17,14,41,11.80
2008,11,17,14,42,11.80
2008,11,17,14,43,11.80
2008,11,17,14,44,11.80
2008,11,17,14,45,11.80
2008,11,17,14,46,11.80
2008,11,17,14,47,11.80
2008,11,17,14,48,11.80
2008,11,17,14,49,11.80
2008,11,17,14,50,11.80
2008,11,17,14,51,11.80
2008,11,17,14,52,11.90
2008,11,17,14,53,11.90
2008,11,17,14,54,11.90
2008,11,17,14,55,11.90
2008,11,17,14,56,11.90
2008,11,17,14,57,11.90
2008,11,17,14,58,11.90
2008,11,17,14,59,11.90
2008,11,17,15,00,11.80
2008,11,17,15,01,11.80
2008,11,17,15,02,11.80
2008,11,17,15,03,11.70
2008,11,17,15,04,11.70
2008,11,17,15,05,11.70
2008,11,17,15,06,11.70
2008,11,17,15,07,11.60
2008,11,17,15,08,11.60
2008,11,17,15,09,11.60
2008,11,17,15,10,11.60
2008,11,17,15,11,11.50
2008,11,17,15,12,11.50
2008,11,17,15,13,11.50
2008,11,17,15,14,11.40
2008,11,17,15,15,11.30
2008,11,17,15,16,11.30
2008,11,17,15,17,11.20
2008,11,17,15,18,11.20
2008,11,17,15,19,11.20
2008,11,17,15,20,11.20
2008,11,17,15,21,11.20
2008,11,17,15,22,11.10
2008,11,17,15,23,11.10
2008,11,17,15,24,11.10
2008,11,17,15,25,11.10
2008,11,17,15,26,11.10
2008,11,17,15,27,11.10
2008,11,17,15,28,11.00
2008,11,17,15,29,11.00
2008,11,17,15,30,11.00
2008,11,17,15,31,10.90
2008,11,17,15,32,10.90
2008,11,17,15,33,10.90
2008,11,17,15,34,10.90
2008,11,17,15,35,10.90
2008,11,17,15,36,10.90
2008,11,17,15,37,10.90
2008,11,17,15,38,10.80
2008,11,17,15,39,10.80
2008,11,17,15,40,10.80
2008,11,17,15,41,10.80
2008,11,17,15,42,10.80
2008,11,17,15,43,10.80
2008,11,17,15,44,10.70
2008,11,17,15,45,10.70
2008,11,17,15,46,10.70
2008,11,17,15,47,10.70
2008,11,17,15,48,10.70
2008,11,17,15,49,10.70
2008,11,17,15,50,10.70
2008,11,17,15,51,10.60
2008,11,17,15,52,10.60
2008,11,17,15,53,10.60
2008,11,17,15,54,10.60
2008,11,17,15,55,10.60
2008,11,17,15,56,10.50
2008,11,17,15,57,10.50
2008,11,17,15,58,10.50
2008,11,17,15,59,10.40
2008,11,17,16,00,10.40
2008,11,17,16,01,10.40
2008,11,17,16,02,10.40
2008,11,17,16,03,10.40
2008,11,17,16,04,10.40
2008,11,17,16,05,10.30
2008,11,17,16,06,10.30
2008,11,17,16,07,10.30
2008,11,17,16,08,10.30
2008,11,17,16,09,10.30
2008,11,17,16,10,10.30
2008,11,17,16,11,10.30
2008,11,17,16,12,10.30
2008,11,17,16,13,10.20
2008,11,17,16,14,10.20
2008,11,17,16,15,10.20
2008,11,17,16,16,10.20
2008,11,17,16,17,10.20
2008,11,17,16,18,10.10
2008,11,17,16,19,10.10
2008,11,17,16,20,10.10
2008,11,17,16,21,10.10
2008,11,17,16,22,10.10
2008,11,17,16,23,10.10
2008,11,17,16,24,10.00
2008,11,17,16,25,10.00
2008,11,17,16,26,10.00
2008,11,17,16,27,10.00
2008,11,17,16,28,9.90
2008,11,17,16,29,9.90
2008,11,17,16,30,9.90
2008,11,17,16,31,9.90
2008,11,17,16,32,9.90
2008,11,17,16,33,9.90
2008,11,17,16,34,9.90
2008,11,17,16,35,9.80
2008,11,17,16,36,9.80
2008,11,17,16,37,9.80
2008,11,17,16,38,9.80
2008,11,17,16,39,9.80
2008,11,17,16,40,9.80
2008,11,17,16,41,9.80
2008,11,17,16,42,9.80
2008,11,17,16,43,9.70
2008,11,17,16,44,9.70
2008,11,17,16,45,9.70
2008,11,17,16,46,9.70
2008,11,17,16,47,9.70
2008,11,17,16,48,9.70
2008,11,17,16,49,9.70
2008,11,17,16,50,9.60
2008,11,17,16,51,9.60
2008,11,17,16,52,9.60
2008,11,17,16,53,9.60
2008,11,17,16,54,9.60
2008,11,17,16,55,9.60
2008,11,17,16,56,9.50
2008,11,17,16,57,9.50
2008,11,17,16,58,9.50
2008,11,17,16,59,9.40
2008,11,17,17,00,9.40
2008,11,17,17,01,9.40
2008,11,17,17,02,9.40
2008,11,17,17,03,9.40
2008,11,17,17,04,9.30
2008,11,17,17,05,9.30
2008,11,17,17,06,9.30
2008,11,17,17,07,9.30
2008,11,17,17,08,9.30
2008,11,17,17,09,9.30
2008,11,17,17,10,9.30
2008,11,17,17,11,9.30
2008,11,17,17,12,9.20
2008,11,17,17,13,9.20
2008,11,17,17,14,9.20
2008,11,17,17,15,9.20
2008,11,17,17,16,9.20
2008,11,17,17,17,9.20
2008,11,17,17,18,9.20
2008,11,17,17,19,9.20
2008,11,17,17,20,9.20
2008,11,17,17,21,9.20
2008,11,17,17,22,9.10
2008,11,17,17,23,9.10
2008,11,17,17,24,9.10
2008,11,17,17,25,9.10
2008,11,17,17,26,9.10
2008,11,17,17,27,9.10
2008,11,17,17,28,9.10
2008,11,17,17,29,9.10
2008,11,17,17,30,9.10
2008,11,17,17,31,9.00
2008,11,17,17,32,9.00
2008,11,17,17,33,9.00
2008,11,17,17,34,9.00
2008,11,17,17,35,9.00
2008,11,17,17,36,8.90
2008,11,17,17,37,8.90
2008,11,17,17,38,8.90
2008,11,17,17,39,8.90
2008,11,17,17,40,8.90
2008,11,17,17,41,8.90
2008,11,17,17,42,8.90
2008,11,17,17,43,8.80
2008,11,17,17,44,8.80
2008,11,17,17,45,8.80
2008,11,17,17,46,8.80
2008,11,17,17,47,8.80
2008,11,17,17,48,8.80
2008,11,17,17,49,8.80
2008,11,17,17,50,8.80
2008,11,17,17,51,8.80
2008,11,17,17,52,8.80